Starlink 35653

operational
NORAD ID: 66122 Int'l Des: 2025-237 Owner: SPXS Country: US Constellation: starlink
LEOCIRCULAR

Über Starlink 35653

Beschreibung wird geladen...

Live-Position

3D-Globus wird geladen...

Nächste Überflüge

Höhenverlauf

Altitude vs Time

uPlot chart will show altitude changes over time

Zweizeiliger Elementsatz

1 66122U 25237J 25352.18464171 .00044139 00000-0 11059-2 0 9994
2 66122 53.1604 61.6200 0001108 87.8032 272.3100 15.39651881 10082
Epoch: 18. Dez. 2025 • Age: 12 hours

Aktueller Status

Höhe 447.9 km
Geschwindigkeit 7.64 km/s
Subsatellitenpunkt -0.00°S, 78.2°E
Startdatum 22. Okt. 2025
Alter 0.1 years
Typ internet

Technische Details

Klassifizierung Payload
Masse 575.00 kg
Trockenmasse 530.00 kg
Gesamtmasse 575.00 kg
Länge 0.30 m
Durchmesser 4.10 m
Spannweite 29.00 m
Form Box + pan
Hersteller SPXS
Bus-Typ Starlink V2MO
Phasenstatus In Orbit
Besitzer/Staat SPXS/US

Große Konstellationen

Loading constellations...